Precipitable_Water
0.58 0.44 0.36 0.43 0.41 0.39 0.33 0.28 0.23 0.32 0.29 0.29 0.28 0.41 0.46 0.46 0.49 0.48 0.51 0.55 0.59 0.63 0.71 0.77 0.81 0.84 0.80 0.71 0.69 0.63 0.55 0.54 0.55 0.52 0.50 0.48 0.45 0.49 0.49 0.51 0.49 0.46 0.45 0.44
0.45 0.39 0.46 0.49 0.45 0.38 0.33 0.26 0.33 0.35 0.31 0.31 0.38 0.38 0.48 0.49 0.50 0.51 0.50 0.53 0.59 0.66 0.69 0.75 0.80 0.82 0.72 0.66 0.64 0.60 0.55 0.55 0.54 0.54 0.52 0.50 0.49 0.47 0.46 0.48 0.46 0.46 0.46 0.46
0.43 0.42 0.47 0.43 0.40 0.35 0.33 0.29 0.30 0.29 0.29 0.35 0.38 0.33 0.39 0.45 0.49 0.51 0.53 0.54 0.58 0.62 0.65 0.69 0.72 0.70 0.66 0.64 0.61 0.58 0.55 0.56 0.55 0.55 0.52 0.49 0.46 0.45 0.45 0.45 0.45 0.47 0.50 0.49
0.43 0.45 0.43 0.41 0.37 0.41 0.30 0.37 0.29 0.28 0.28 0.23 0.35 0.22 0.35 0.38 0.37 0.39 0.41 0.43 0.46 0.50 0.55 0.56 0.58 0.60 0.61 0.60 0.61 0.58 0.57 0.56 0.56 0.56 0.50 0.46 0.42 0.41 0.44 0.43 0.45 0.48 0.52 0.53
0.35 0.39 0.41 0.36 0.36 0.40 0.35 0.38 0.31 0.27 0.27 0.27 0.30 0.27 0.27 0.33 0.29 0.29 0.32 0.36 0.39 0.42 0.44 0.45 0.50 0.53 0.56 0.57 0.57 0.58 0.58 0.55 0.55 0.55 0.52 0.48 0.46 0.48 0.46 0.46 0.47 0.49 0.52 0.55
0.40 0.46 0.40 0.37 0.39 0.38 0.37 0.32 0.31 0.32 0.28 0.20 0.26 0.25 0.21 0.23 0.25 0.26 0.29 0.30 0.35 0.38 0.42 0.44 0.46 0.46 0.46 0.52 0.55 0.56 0.53 0.53 0.56 0.55 0.52 0.49 0.49 0.48 0.46 0.47 0.47 0.50 0.54 0.56
0.35 0.35 0.39 0.40 0.34 0.37 0.33 0.29 0.18 0.15 0.17 0.17 0.21 0.17 0.21 0.24 0.26 0.27 0.27 0.29 0.34 0.38 0.42 0.44 0.42 0.44 0.45 0.47 0.52 0.55 0.53 0.51 0.54 0.54 0.52 0.53 0.52 0.52 0.48 0.47 0.48 0.49 0.50 0.52
0.25 0.23 0.31 0.38 0.36 0.31 0.28 0.26 0.21 0.13 0.14 0.15 0.18 0.13 0.21 0.26 0.28 0.32 0.32 0.33 0.36 0.38 0.42 0.40 0.42 0.44 0.44 0.45 0.48 0.51 0.51 0.52 0.53 0.53 0.53 0.55 0.56 0.52 0.48 0.48 0.50 0.49 0.48 0.50
0.26 0.24 0.35 0.34 0.34 0.33 0.24 0.20 0.24 0.22 0.23 0.14 0.13 0.20 0.24 0.25 0.26 0.28 0.29 0.31 0.33 0.37 0.39 0.39 0.41 0.43 0.44 0.45 0.48 0.50 0.50 0.52 0.54 0.54 0.56 0.55 0.52 0.50 0.48 0.49 0.47 0.44 0.45 0.47
0.28 0.21 0.29 0.31 0.33 0.32 0.25 0.27 0.20 0.22 0.13 0.13 0.13 0.15 0.21 0.20 0.22 0.28 0.29 0.32 0.35 0.38 0.39 0.41 0.43 0.46 0.48 0.50 0.53 0.55 0.56 0.55 0.57 0.57 0.54 0.52 0.50 0.51 0.47 0.44 0.41 0.42 0.44 0.47
0.30 0.24 0.23 0.27 0.24 0.23 0.24 0.21 0.21 0.20 0.20 0.15 0.10 0.16 0.25 0.24 0.26 0.27 0.32 0.35 0.37 0.38 0.42 0.45 0.47 0.50 0.53 0.56 0.57 0.57 0.57 0.55 0.54 0.53 0.51 0.49 0.46 0.44 0.44 0.44 0.45 0.44 0.46 0.48
0.28 0.25 0.18 0.20 0.26 0.26 0.25 0.22 0.21 0.17 0.16 0.17 0.16 0.19 0.30 0.31 0.30 0.32 0.32 0.36 0.40 0.42 0.44 0.46 0.48 0.49 0.49 0.50 0.51 0.51 0.51 0.50 0.50 0.48 0.46 0.45 0.45 0.45 0.43 0.42 0.44 0.47 0.49 0.51
0.26 0.21 0.16 0.16 0.20 0.24 0.19 0.21 0.22 0.20 0.18 0.13 0.12 0.19 0.31 0.30 0.31 0.34 0.35 0.36 0.37 0.37 0.38 0.42 0.42 0.43 0.43 0.44 0.45 0.46 0.46 0.46 0.46 0.46 0.44 0.43 0.42 0.42 0.44 0.46 0.48 0.48 0.49 0.50
0.26 0.20 0.19 0.17 0.18 0.21 0.18 0.20 0.20 0.18 0.15 0.15 0.14 0.18 0.24 0.26 0.27 0.31 0.33 0.36 0.37 0.35 0.33 0.34 0.35 0.36 0.37 0.39 0.40 0.41 0.42 0.44 0.44 0.43 0.42 0.44 0.48 0.50 0.52 0.54 0.54 0.54 0.54 0.52
0.21 0.15 0.16 0.15 0.16 0.17 0.17 0.17 0.20 0.17 0.17 0.14 0.17 0.19 0.23 0.26 0.26 0.27 0.27 0.28 0.29 0.32 0.33 0.35 0.37 0.38 0.40 0.42 0.44 0.45 0.47 0.48 0.49 0.49 0.51 0.54 0.58 0.59 0.59 0.58 0.57 0.56 0.56 0.57
0.31 0.24 0.25 0.23 0.24 0.22 0.19 0.18 0.14 0.15 0.17 0.17 0.16 0.16 0.23 0.24 0.25 0.25 0.29 0.31 0.33 0.37 0.40 0.42 0.43 0.45 0.47 0.49 0.50 0.52 0.53 0.54 0.56 0.55 0.56 0.58 0.57 0.57 0.56 0.56 0.57 0.57 0.56 0.54
0.30 0.25 0.23 0.19 0.25 0.23 0.17 0.23 0.24 0.24 0.25 0.25 0.21 0.26 0.32 0.31 0.32 0.32 0.34 0.36 0.37 0.39 0.40 0.41 0.43 0.45 0.47 0.48 0.50 0.51 0.53 0.56 0.56 0.57 0.57 0.57 0.57 0.57 0.57 0.58 0.56 0.53 0.50 0.48
0.31 0.29 0.27 0.21 0.24 0.15 0.26 0.28 0.27 0.25 0.26 0.27 0.27 0.28 0.30 0.31 0.34 0.37 0.39 0.39 0.40 0.42 0.43 0.45 0.46 0.48 0.51 0.53 0.55 0.55 0.57 0.58 0.58 0.58 0.57 0.57 0.57 0.56 0.55 0.52 0.49 0.46 0.44 0.41
0.38 0.32 0.25 0.21 0.21 0.23 0.25 0.28 0.25 0.24 0.24 0.30 0.28 0.30 0.32 0.35 0.37 0.38 0.42 0.44 0.45 0.47 0.48 0.49 0.52 0.53 0.54 0.55 0.56 0.57 0.57 0.57 0.57 0.56 0.55 0.55 0.54 0.51 0.48 0.44 0.42 0.41 0.39 0.37
0.38 0.38 0.30 0.27 0.20 0.16 0.24 0.29 0.32 0.31 0.21 0.31 0.32 0.32 0.34 0.37 0.30 0.36 0.47 0.50 0.51 0.51 0.53 0.54 0.55 0.56 0.55 0.56 0.57 0.56 0.55 0.54 0.52 0.52 0.52 0.51 0.49 0.45 0.43 0.41 0.39 0.38 0.36 0.34
0.31 0.31 0.26 0.26 0.23 0.25 0.32 0.34 0.35 0.21 0.23 0.34 0.35 0.35 0.36 0.35 0.40 0.47 0.51 0.51 0.53 0.54 0.55 0.56 0.56 0.54 0.55 0.56 0.55 0.51 0.52 0.51 0.51 0.50 0.48 0.45 0.43 0.40 0.38 0.36 0.33 0.31 0.30 0.31
0.30 0.28 0.27 0.28 0.25 0.21 0.37 0.34 0.27 0.33 0.37 0.37 0.38 0.39 0.40 0.42 0.45 0.47 0.49 0.50 0.51 0.52 0.52 0.52 0.49 0.49 0.52 0.53 0.52 0.50 0.48 0.48 0.45 0.42 0.40 0.37 0.34 0.32 0.31 0.29 0.28 0.28 0.29 0.30
0.29 0.33 0.30 0.31 0.30 0.40 0.41 0.38 0.40 0.42 0.40 0.41 0.42 0.43 0.43 0.44 0.45 0.48 0.48 0.50 0.51 0.50 0.49 0.50 0.48 0.47 0.49 0.49 0.47 0.43 0.41 0.39 0.35 0.32 0.28 0.26 0.26 0.25 0.25 0.24 0.26 0.28 0.30 0.31
0.39 0.41 0.35 0.34 0.36 0.38 0.40 0.43 0.43 0.43 0.42 0.44 0.46 0.46 0.47 0.46 0.48 0.49 0.50 0.50 0.49 0.48 0.46 0.46 0.44 0.42 0.41 0.41 0.38 0.34 0.31 0.29 0.26 0.23 0.22 0.22 0.21 0.23 0.25 0.27 0.28 0.27 0.27 0.27
0.43 0.43 0.39 0.37 0.39 0.40 0.42 0.43 0.43 0.43 0.45 0.47 0.49 0.49 0.49 0.49 0.50 0.50 0.50 0.48 0.46 0.43 0.42 0.39 0.34 0.31 0.29 0.29 0.27 0.27 0.26 0.25 0.23 0.22 0.21 0.23 0.25 0.25 0.24 0.25 0.25 0.26 0.26 0.27
0.49 0.43 0.38 0.33 0.41 0.39 0.40 0.45 0.46 0.44 0.44 0.47 0.48 0.48 0.52 0.53 0.51 0.51 0.47 0.44 0.41 0.36 0.33 0.29 0.27 0.25 0.25 0.25 0.25 0.25 0.26 0.26 0.25 0.24 0.25 0.25 0.24 0.24 0.24 0.23 0.22 0.23 0.22 0.21
Wind_Speed
7 8 10 10 11 8 14 17 19 14 20 22 25 23 24 26 26 26 25 24 23 23 23 22 22 21 20 19 18 18 17 16 15 15 16 16 17 17 18 19 20 21 22 23
6 6 6 6 8 9 11 19 15 12 19 20 23 21 23 24 24 24 23 22 22 21 21 21 21 21 20 20 19 18 18 17 17 17 17 17 18 19 19 20 21 22 23 24
7 5 6 9 9 6 11 15 16 14 19 19 20 18 23 23 22 22 21 20 20 20 20 20 20 21 20 20 20 19 19 18 18 18 18 19 20 20 21 21 22 23 24 25
4 4 6 11 10 6 10 8 16 18 19 18 18 16 22 23 21 21 21 20 19 19 19 19 20 20 21 21 20 20 20 20 20 20 20 20 21 21 22 23 24 25 26 27
5 5 6 8 7 7 9 10 13 18 17 14 16 13 18 21 20 20 20 20 18 18 18 18 19 20 20 21 21 21 21 21 21 22 22 22 22 23 24 25 26 27 28 28
6 6 7 8 8 7 11 12 14 14 14 11 15 12 16 17 16 19 19 18 16 16 16 17 18 18 19 21 21 22 22 23 23 23 23 23 24 25 26 27 28 29 30 30
6 8 10 8 9 11 12 13 12 10 10 11 13 10 12 13 12 12 16 15 14 15 16 18 18 19 20 21 22 23 24 24 24 24 24 25 26 27 28 29 30 31 32 32
9 8 8 8 11 10 10 12 12 12 10 10 11 10 9 10 11 11 12 14 13 13 15 15 16 17 19 20 21 22 23 24 24 25 25 26 27 28 29 31 32 33 34 34
8 9 9 10 9 10 10 9 9 8 9 9 10 8 8 9 10 11 12 12 13 13 14 15 16 17 18 19 20 21 22 23 24 25 26 27 29 30 32 33 34 35 35 35
8 9 9 9 9 10 9 8 8 7 7 7 6 7 7 8 9 10 10 12 12 13 13 14 15 16 17 18 19 21 22 23 24 26 27 29 31 32 33 34 35 35 35 35
8 9 9 9 8 8 7 7 6 5 6 5 6 6 5 8 10 10 10 11 12 13 13 15 15 17 17 18 20 21 22 24 25 27 29 31 33 34 35 35 35 35 35 34
8 7 8 8 8 6 5 4 4 4 2 3 4 5 5 6 8 8 9 10 11 12 13 15 16 18 19 20 22 23 24 26 27 29 31 33 34 35 35 35 35 34 34 34
5 5 5 4 4 5 4 5 4 4 3 5 4 7 6 7 8 10 10 12 13 15 16 18 20 21 22 23 24 25 26 28 30 31 33 35 35 35 34 34 34 33 33 33
4 2 3 4 2 2 3 4 6 5 5 7 7 8 9 9 9 11 14 16 18 19 20 21 22 23 24 26 27 28 29 31 32 33 34 34 33 33 33 34 34 34 34 34
4 2 2 2 4 3 6 7 7 9 10 8 8 7 10 12 14 15 18 19 20 20 21 22 24 25 26 27 28 29 30 31 32 32 33 33 33 34 34 35 35 35 35 35
3 2 3 3 2 4 7 8 9 10 11 12 13 14 13 13 15 16 17 17 18 19 21 22 23 24 26 27 28 29 30 30 31 32 33 34 34 35 36 36 36 37 37 36
5 5 5 5 6 8 8 7 8 8 9 10 12 11 11 12 13 14 15 15 17 18 19 22 23 25 26 27 28 30 31 33 34 35 36 37 37 37 38 38 38 37 37 37
8 7 6 8 9 6 7 7 10 12 12 14 15 14 14 14 15 16 16 17 18 20 22 24 26 27 28 30 31 33 34 35 36 37 38 38 38 38 38 38 38 37 37 37
9 9 9 8 11 14 12 12 11 12 16 17 17 17 17 17 18 20 19 21 22 24 27 28 30 31 32 34 34 35 36 37 38 38 38 38 38 37 37 37 37 36 36 36
12 13 12 12 13 14 13 13 15 15 19 15 15 16 17 19 20 22 21 24 27 29 31 32 33 34 35 36 35 35 36 37 37 37 36 36 36 36 36 36 36 36 35 36
13 13 15 16 17 19 16 17 18 17 19 17 18 19 21 22 23 24 27 30 32 33 34 35 36 36 35 35 35 35 35 36 35 35 35 35 35 35 35 35 35 35 36 37
15 15 16 17 18 21 16 18 19 21 22 22 23 24 24 25 27 29 31 33 35 36 36 35 34 34 34 34 34 34 34 34 33 33 34 34 35 35 36 36 37 37 38 39
20 19 19 19 21 21 23 24 26 27 26 26 27 27 28 29 31 33 34 35 35 35 34 34 33 33 33 32 32 32 32 32 33 34 35 35 36 37 38 38 39 40 41 41
24 23 23 23 25 26 28 30 30 30 30 30 28 29 30 32 33 34 35 35 34 34 33 32 31 31 31 30 30 31 32 33 34 36 37 37 38 39 40 41 42 43 43 44
27 25 26 30 31 33 33 32 32 31 30 30 30 31 32 33 35 34 34 33 32 31 30 30 30 30 30 30 31 32 33 35 37 38 39 41 42 44 45 45 45 46 46 46
30 30 30 33 32 32 33 32 30 30 31 31 32 33 34 34 33 33 32 31 30 30 29 30 30 30 31 32 34 35 37 39 41 43 44 46 47 48 48 49 49 48 48 48
Wind_Direction
152 175 177 183 183 177 189 188 191 182 191 194 195 195 196 196 195 198 202 205 209 213 216 218 220 222 224 226 227 230 236 243 252 263 273 281 287 290 295 298 302 306 310 312
145 166 168 183 187 196 200 188 171 177 183 184 190 188 190 194 195 197 199 203 206 211 212 216 220 222 223 226 229 234 240 247 256 266 274 281 286 290 294 298 301 304 307 309
149 161 175 182 177 191 166 187 181 181 180 184 175 185 188 193 194 196 201 204 209 211 213 217 221 222 224 228 233 238 244 250 259 266 274 280 286 290 294 297 300 303 305 307
130 136 149 167 168 153 172 174 174 169 173 175 178 190 194 192 196 201 206 208 211 214 217 222 224 226 229 233 237 241 247 254 260 267 273 279 284 288 293 296 299 301 303 305
111 105 128 137 154 158 159 172 169 168 169 167 186 181 195 189 200 205 210 213 213 217 221 225 227 230 233 236 240 246 251 256 262 268 273 278 282 288 292 295 298 300 302 302
115 129 130 148 149 147 155 154 152 161 164 174 181 178 195 195 201 206 210 213 213 220 225 229 232 234 239 242 245 250 254 258 263 268 273 277 282 288 292 294 297 299 300 301
103 112 128 128 140 146 151 158 151 154 162 180 182 184 189 189 200 210 201 207 216 225 229 232 236 241 246 248 250 254 257 261 264 268 273 277 282 287 291 294 296 298 300 300
112 112 112 118 128 141 141 144 145 157 163 169 174 189 196 186 197 207 206 212 222 228 229 236 240 245 249 252 254 257 259 263 266 270 274 278 283 287 291 293 295 297 298 299
99 111 126 123 127 138 143 133 141 146 158 146 172 172 184 188 197 204 210 217 223 228 234 240 246 251 254 256 258 260 263 266 268 272 276 280 284 288 291 293 295 296 297 298
97 115 121 127 137 146 139 139 132 145 155 153 184 175 199 205 202 207 213 221 226 234 240 247 253 258 261 262 264 265 267 269 272 275 278 282 285 289 291 293 295 296 296 297
94 125 132 133 135 134 136 137 146 143 148 152 171 214 212 210 218 219 221 230 236 244 250 255 260 263 265 267 269 270 271 273 275 278 281 284 287 289 291 293 294 295 296 296
97 119 129 128 136 139 153 158 159 132 177 170 191 226 208 213 218 234 232 242 250 253 258 262 265 267 269 270 271 272 274 276 279 282 284 286 288 289 291 292 293 294 295 296
74 114 115 126 133 154 184 178 199 219 222 229 217 242 229 228 231 246 247 252 258 262 266 269 270 270 271 273 275 276 278 280 282 284 286 287 289 290 291 291 292 294 295 296
62 100 114 140 146 179 200 205 224 238 236 256 253 240 245 246 250 255 261 267 268 270 272 273 274 275 276 277 277 279 281 283 285 286 287 288 289 290 290 291 292 293 294 295
47 43 56 285 270 256 254 257 239 243 253 256 262 274 251 259 269 275 280 278 279 277 276 276 277 277 278 279 281 282 284 285 287 288 288 288 289 290 291 291 292 293 294 294
22 4 349 321 336 282 274 262 259 260 262 268 272 274 274 274 279 281 282 282 286 285 284 281 282 283 284 285 285 285 286 287 288 289 289 289 290 290 291 291 292 292 292 293
332 330 336 306 318 306 297 276 251 263 264 269 270 277 276 279 285 286 288 288 289 290 291 291 288 286 287 288 288 288 288 288 289 289 289 289 289 290 290 290 291 291 292 292
301 301 307 298 312 310 287 306 298 267 278 271 276 276 279 278 279 282 281 285 288 291 293 292 291 290 289 289 289 289 289 289 290 290 290 289 289 289 290 290 290 291 291 292
285 292 293 292 291 289 293 291 287 283 286 274 274 275 276 277 281 282 284 288 290 293 294 293 293 292 292 291 290 290 290 290 290 290 290 290 290 290 291 291 291 291 292 292
287 283 288 289 290 289 294 293 294 290 288 281 274 274 274 278 285 284 284 288 291 294 295 295 294 293 293 291 291 291 291 292 292 292 291 292 292 291 291 291 291 292 292 292
283 282 279 280 285 290 290 288 291 292 289 286 282 281 279 281 284 284 288 291 293 294 295 295 295 293 293 292 292 291 292 293 293 293 293 293 293 293 292 292 292 292 292 293
274 275 279 281 284 287 284 289 284 287 291 287 285 285 284 285 288 290 292 294 295 295 296 295 294 293 292 292 292 292 293 293 294 294 294 294 294 294 293 293 293 293 293 293
279 275 282 279 281 287 281 288 285 288 286 286 285 284 284 286 289 291 292 293 294 295 295 295 294 294 293 292 291 292 293 294 295 295 295 295 295 295 294 293 293 293 293 292
275 278 282 287 285 286 283 284 283 284 284 284 283 285 286 287 289 291 292 292 293 294 294 294 294 293 293 293 293 294 295 295 296 296 296 297 297 297 296 295 294 293 293 293
276 284 282 281 285 286 284 284 284 281 280 281 283 284 286 287 289 290 291 291 292 292 292 293 292 292 293 294 295 295 296 296 296 296 297 297 297 296 295 294 293 293 293 292
275 277 278 282 284 283 285 287 284 281 281 281 283 284 286 288 288 289 289 289 289 290 290 291 291 292 293 295 295 296 296 296 296 296 296 296 296 296 295 294 293 292 291 291